www.pogodaiklimat.ru

Погода и климат >> Архив погоды >> Австралия >> Bourke Airport Aws


ПОГОДА в Bourke Airport Aws

  • Прогноз погоды в Bourke Airport Aws
  • Монитор погоды в Bourke Airport Aws
  • Климат города

АРХИВ ПОГОДЫ в Bourke Airport Aws

Время (UTC), дата Ветер
(напр.,м/с)
 
Видим.   Явления Облачность Т
(С)
Тd
(С)
f
(%)
Тe
(С)
Тes
(С)
Комфортность P
(гПа)
Po
(гПа)
Тmin
(С)
Tmax
(С)
R
(мм)
R24
(мм)
S
(см)
05 17.05 СВ 6 н/о н/о +25.5 +0.9 20 +24 +24 комфорт 1015.4 1002.6
04 17.05 В 6 н/о н/о +25.3 +0.8 20 +24 +24 комфорт 1015.6 1002.8
06 17.05 СВ 6 н/о н/о +25.2 +1.3 21 +24 +24 комфорт 1015.1 1002.3
07 17.05 СВ 4 н/о н/о +24.2 +1.8 23 +23 +23 комфорт 1015.3 1002.5
08 17.05 В 3 н/о н/о +21.4 +1.7 27 +21 +21 комфорт 1015.6 1002.8
09 17.05 В 4 н/о н/о +21.0 +2.8 30 +22 +22 комфорт 1015.9 1003.1
11 17.05 В 5 н/о н/о +19.7 +1.7 30 +20 +20 1016.8 1004.0
10 17.05 В 4 н/о н/о +20.3 +2.2 30 +21 +21 комфорт 1016.4 1003.6
12 17.05 В 5 н/о н/о +18.6 +1.6 32 +18 +18 1016.6 1003.8
13 17.05 В 4 н/о н/о +18.1 +2.0 34 +18 +18 1016.6 1003.8
14 17.05 В 4 н/о н/о +17.9 +3.0 37 +18 +18 1016.3 1003.5 +26.4
15 17.05 В 4 н/о н/о +17.4 +3.3 39 +17 +17 1016.2 1003.4
17 17.05 В 5 н/о н/о +17.5 +4.8 43 +17 +17 1015.3 1002.5
16 17.05 В 6 н/о н/о +18.4 +4.2 39 +18 +18 1015.5 1002.7
18 17.05 В 5 н/о н/о +17.1 +5.7 47 +17 +17 1015.5 1002.7
19 17.05 В 5 н/о н/о +17.1 +6.6 50 +17 +17 1015.8 1003.0
20 17.05 СВ 4 н/о н/о +16.6 +7.3 54 +16 +16 1016.3 1003.5
21 17.05 В 4 н/о н/о +16.0 +8.0 59 +15 +15 1017.2 1004.4
23 17.05 СВ 7 н/о н/о +20.4 +9.6 50 +22 +22 комфорт 1018.7 1005.9
22 17.05 В 6 н/о н/о +18.0 +8.6 54 +18 +18 1018.0 1005.2
00 18.05 С 7 н/о н/о +22.8 +13.0 54 +26 +26 жарко 1018.5 1005.7
01 18.05 С 6 н/о н/о +24.0 +11.7 46 +26 +26 жарко 1018.1 1005.3
02 18.05 С 6 н/о н/о +23.3 +12.0 49 +26 +26 жарко 1017.9 1005.1
03 18.05 СЗ 3 н/о н/о +22.2 +15.1 64 +26 +26 душно 1017.3 1004.5
05 18.05 ЮЗ 4 н/о н/о +22.0 +13.4 58 +25 +25 комфорт 1016.9 1004.1
04 18.05 СЗ 2 н/о н/о +23.3 +12.3 50 +26 +26 жарко 1016.8 1004.0
06 18.05 З 6 н/о н/о +18.8 +10.1 57 +19 +19 1017.3 1004.5
07 18.05 З 4 н/о н/о +15.1 +13.0 87 +14 +14 1018.4 1005.6
08 18.05 ЮЗ 3 н/о в посл. час дождь {туман} н/о +14.8 +13.3 91 +14 +14 1018.9 1006.1
09 18.05 ЮЗ 3 н/о н/о +14.7 +13.4 92 +14 +14 1019.2 1006.4
11 18.05 СЗ 1 н/о туман местами н/о +14.8 +13.8 94 +15 +15 1020.2 1007.3
10 18.05 Ю 1 н/о н/о +14.8 +13.5 92 +15 +15 1019.8 1006.9
12 18.05 В 3 н/о н/о +14.8 +14.0 95 +14 +14 1019.7 1006.8
13 18.05 ЮВ 4 н/о н/о +15.0 +13.9 93 +14 +14 1018.2 1005.4
14 18.05 ЮВ 3 н/о {туман} н/о +14.8 +13.8 94 +14 +14 1017.9 1005.1
15 18.05 В 2 н/о н/о +14.2 +13.2 94 +14 +14 1017.7 1004.9
17 18.05 С 2 н/о {туман} н/о +13.3 +12.4 94 +13 +13 1017.8 1005.0
16 18.05 В 2 н/о н/о +13.4 +12.3 93 +13 +13 1017.7 1004.9
18 18.05 штиль 0 н/о н/о +12.6 +11.7 94 +12 +12 1017.6 1004.8
19 18.05 штиль 0 н/о н/о +13.2 +12.6 96 +13 +13 1017.9 1005.1
20 18.05 штиль 0 н/о н/о +13.7 +13.1 96 +13 +13 1018.5 1005.7
21 18.05 СВ 2 н/о н/о +13.8 +13.2 96 +13 +13 1019.2 1006.4
23 18.05 штиль 0 н/о н/о +14.8 +14.0 95 +14 +14 1020.1 1007.2
22 18.05 штиль 0 н/о н/о +14.1 +13.3 95 +14 +14 1019.6 1006.7
00 19.05 В 2 н/о н/о +15.3 +14.2 93 +15 +15 1019.8 1006.9
01 19.05 штиль 0 н/о н/о +16.0 +14.2 89 +16 +16 1019.2 1006.4
02 19.05 штиль 0 н/о н/о +17.6 +15.2 86 +18 +18 1018.2 1005.4 +12.4
03 19.05 С 2 н/о н/о +18.6 +15.1 80 +20 +20 1017.1 1004.3
05 19.05 В 1 н/о н/о +18.9 +15.4 80 +22 +22 комфорт 1015.9 1003.1
04 19.05 С 1 н/о н/о +18.8 +15.1 79 +21 +21 комфорт 1016.5 1003.7
06 19.05 Ю 3 н/о н/о +18.5 +15.9 85 +20 +20 1015.7 1002.9
07 19.05 В 3 н/о н/о +17.7 +16.2 91 +18 +18 1016.1 1003.3
08 19.05 В 3 н/о {туман} н/о +17.3 +15.8 91 +17 +17 1016.0 1003.2
09 19.05 Ю 1 н/о н/о +17.1 +16.0 93 +19 +19 1016.6 1003.8
11 19.05 ЮВ 1 н/о {туман} н/о +15.6 +14.6 94 +17 +17 1016.6 1003.8
10 19.05 Ю 2 н/о н/о +16.0 +14.9 93 +16 +16 1016.6 1003.8
12 19.05 штиль 0 н/о н/о +15.3 +14.3 94 +15 +15 1016.8 1004.0
13 19.05 ЮЗ 2 н/о н/о +15.5 +14.7 95 +15 +15 1016.7 1003.9
14 19.05 ЮЗ 2 н/о {туман} н/о +15.6 +15.0 96 +15 +15 1016.6 1003.8 +19.3
15 19.05 Ю 2 н/о н/о +15.7 +15.1 96 +16 +16 1016.3 1003.5
17 19.05 Ю 3 н/о {туман} н/о +14.9 +14.3 96 +14 +14 1015.4 1002.6
16 19.05 Ю 2 н/о н/о +15.6 +15.0 96 +16 +16 1016.3 1003.5
18 19.05 Ю 2 н/о н/о +13.9 +13.3 96 +14 +14 1015.6 1002.8
19 19.05 С 2 н/о н/о +13.4 +12.8 96 +13 +13 1016.0 1003.2
20 19.05 штиль 0 н/о н/о +14.0 +13.4 96 +14 +14 1016.4 1003.6
21 19.05 ЮЗ 2 н/о н/о +13.8 +13.2 96 +13 +13 1016.9 1004.1
23 19.05 ЮВ 3 н/о н/о +15.0 +14.4 96 +14 +14 1018.1 1005.3
22 19.05 Ю 2 н/о н/о +14.6 +14.1 97 +14 +14 1017.7 1004.9
00 20.05 ЮВ 2 н/о н/о +15.4 +14.8 96 +15 +15 1018.4 1005.6
01 20.05 Ю 3 н/о н/о +15.9 +15.3 96 +15 +15 1018.3 1005.5
02 20.05 Ю 3 н/о н/о +16.0 +15.2 95 +15 +15 1017.6 1004.8 +13.2
03 20.05 Ю 3 н/о н/о +16.8 +15.2 90 +17 +17 1017.1 1004.3
05 20.05 Ю 3 н/о н/о +17.8 +14.9 83 +18 +18 1016.8 1004.0
04 20.05 Ю 2 н/о н/о +17.7 +15.1 85 +18 +18 1016.9 1004.1
06 20.05 ЮВ 2 н/о н/о +18.7 +14.6 77 +20 +20 1016.9 1004.1
07 20.05 Ю 2 н/о н/о +18.5 +14.2 76 +20 +20 1016.9 1004.1
08 20.05 ЮВ 2 н/о н/о +16.0 +13.5 85 +16 +16 1017.3 1004.5
09 20.05 штиль 0 н/о н/о +14.1 +12.7 91 +14 +14 1017.9 1005.1
11 20.05 штиль 0 н/о н/о +12.3 +11.0 92 +12 +12 1018.3 1005.5
10 20.05 ЮВ 2 н/о н/о +13.4 +12.3 93 +13 +13 1018.2 1005.4
12 20.05 Ю 2 н/о н/о +12.1 +11.3 95 +11 +11 1018.6 1005.8
13 20.05 штиль 0 н/о н/о +11.1 +10.2 94 +10 +10 1018.6 1005.8
14 20.05 Ю 1 н/о н/о +10.5 +9.6 94 +10 +10 1018.6 1005.8 +19.1
15 20.05 Ю 2 н/о н/о +10.6 +9.8 95 +9 +9 1018.4 1005.6
17 20.05 ЮВ 3 н/о н/о +11.0 +10.4 96 +9 +9 1018.4 1005.6
16 20.05 Ю 2 н/о н/о +10.4 +9.6 95 +9 +9 1018.5 1005.7
18 20.05 Ю 2 н/о н/о +9.8 +9.2 96 +8 +8 1018.3 1005.5
19 20.05 Ю 2 н/о н/о +9.6 +9.0 96 +8 +8 1018.7 1005.9
20 20.05 Ю 3 н/о н/о +10.9 +10.4 97 +9 +9 1019.1 1006.3
21 20.05 ЮВ 2 н/о н/о +9.4 +8.8 96 +8 +8 1020.0 1007.1
23 20.05 ЮВ 2 н/о н/о +12.9 +12.1 95 +12 +12 1021.1 1008.2
22 20.05 Ю 3 н/о н/о +10.4 +9.9 97 +8 +8 1020.5 1007.6
00 21.05 ЮВ 2 н/о н/о +16.2 +13.9 86 +16 +16 1021.4 1008.5
01 21.05 ЮВ 4 н/о н/о +19.1 +14.1 73 +20 +20 1021.1 1008.2
02 21.05 ЮВ 3 н/о в посл. час дождь {туман} н/о +20.0 +12.5 62 +22 +22 комфорт 1020.1 1007.2 +9.2
03 21.05 Ю 4 н/о н/о +21.3 +9.2 46 +23 +23 комфорт 1019.1 1006.3
05 21.05 Ю 3 н/о {туман} н/о +22.2 +6.8 37 +23 +23 комфорт 1018.5 1005.7
04 21.05 В 2 н/о н/о +22.1 +7.5 39 +23 +23 комфорт 1018.6 1005.8
06 21.05 ЮЗ 1 н/о н/о +22.1 +7.1 38 +23 +23 комфорт 1018.5 1005.7
07 21.05 ЮВ 2 н/о н/о +21.3 +6.4 38 +22 +22 комфорт 1018.8 1006.0
08 21.05 Ю 2 н/о н/о +17.4 +8.8 57 +18 +18 1019.3 1006.5
09 21.05 Ю 2 н/о н/о +15.0 +11.0 77 +15 +15 1019.9 1007.0
11 21.05 Ю 4 н/о н/о +15.9 +7.9 59 +15 +15 1020.9 1008.0
10 21.05 Ю 2 н/о н/о +13.5 +10.5 82 +13 +13 1020.7 1007.8
12 21.05 ЮВ 3 н/о н/о +13.7 +7.5 66 +13 +13 1021.0 1008.1
13 21.05 Ю 3 н/о н/о +13.2 +8.3 72 +12 +12 1020.9 1008.0
14 21.05 ЮВ 3 н/о н/о +11.5 +7.8 78 +10 +10 1020.9 1008.0 +22.7
15 21.05 ЮВ 3 н/о н/о +10.4 +7.6 83 +9 +9 1020.6 1007.7
17 21.05 ЮВ 2 н/о н/о +10.5 +7.2 80 +9 +9 1020.6 1007.7
16 21.05 ЮВ 3 н/о н/о +11.5 +8.2 80 +10 +10 1020.5 1007.6
18 21.05 ЮВ 2 н/о н/о +9.4 +7.3 87 +8 +8 1020.6 1007.7
19 21.05 ЮВ 2 н/о н/о +8.5 +6.8 89 +7 +7 1020.8 1007.9
20 21.05 Ю 3 н/о н/о +8.9 +7.4 90 +7 +7 1021.0 1008.1
21 21.05 ЮВ 3 н/о н/о +8.8 +6.9 88 +7 +7 1021.7 1008.8
23 21.05 В 3 н/о н/о +14.3 +9.1 71 +14 +14 1022.9 1010.0
22 21.05 Ю 3 н/о н/о +10.2 +8.1 87 +8 +8 1022.4 1009.5
00 22.05 В 4 н/о н/о +18.5 +10.1 58 +19 +19 1022.7 1009.8
01 22.05 В 4 н/о н/о +20.7 +9.0 47 +22 +22 комфорт 1022.0 1009.1
02 22.05 СВ 3 н/о н/о +22.6 +8.7 41 +24 +24 комфорт 1021.3 1008.4 +8.4
03 22.05 СВ 3 н/о н/о +23.1 +9.8 43 +25 +25 комфорт 1020.4 1007.5
05 22.05 С 4 н/о н/о +23.9 +11.3 45 +25 +25 комфорт 1018.8 1006.0
04 22.05 С 2 н/о н/о +24.3 +11.6 45 +26 +26 жарко 1019.6 1006.7
06 22.05 С 3 н/о н/о +24.5 +12.1 46 +26 +26 жарко 1018.7 1005.9
07 22.05 СВ 2 н/о н/о +23.7 +12.4 49 +26 +26 жарко 1018.5 1005.7
08 22.05 В 2 н/о н/о +19.9 +12.7 63 +22 +22 комфорт 1018.7 1005.9
09 22.05 ЮВ 2 н/о н/о +17.9 +13.0 73 +18 +18 1019.2 1006.4
11 22.05 В 3 н/о н/о +15.7 +11.9 78 +15 +15 1020.1 1007.2
10 22.05 ЮВ 3 н/о н/о +16.0 +12.4 79 +16 +16 1019.6 1006.7
12 22.05 В 3 н/о н/о +14.8 +11.8 82 +14 +14 1019.9 1007.0
13 22.05 В 3 н/о н/о +16.1 +12.1 77 +16 +16 1019.9 1007.0
14 22.05 В 3 н/о н/о +15.0 +11.6 80 +14 +14 1019.7 1006.8 +25.2
15 22.05 В 3 н/о н/о +14.5 +11.1 80 +14 +14 1019.1 1006.3
17 22.05 В 3 н/о н/о +14.1 +10.9 81 +13 +13 1018.6 1005.8
16 22.05 В 3 н/о н/о +14.1 +11.1 82 +13 +13 1018.7 1005.9
18 22.05 В 3 н/о н/о +14.2 +10.4 78 +13 +13 1018.4 1005.6
19 22.05 В 3 н/о н/о +13.7 +10.3 80 +13 +13 1018.4 1005.6
20 22.05 В 3 н/о н/о +13.0 +10.0 82 +12 +12 1018.8 1006.0
21 22.05 В 3 н/о н/о +13.2 +10.4 83 +12 +12 1019.2 1006.4
23 22.05 СВ 4 н/о н/о +19.2 +13.4 69 +21 +21 комфорт 1019.4 1006.6
22 22.05 В 3 н/о н/о +14.8 +11.4 80 +14 +14 1019.4 1006.6
00 23.05 С 5 н/о н/о +22.4 +13.5 57 +25 +25 комфорт 1019.1 1006.3
01 23.05 С 6 н/о н/о +26.5 +12.9 43 +28 +28 жарко 1018.3 1005.5
02 23.05 СЗ 7 н/о н/о +27.6 +10.3 34 +28 +28 жарко 1017.5 1004.7 +13.1
03 23.05 СЗ 6 н/о н/о +29.2 +10.3 31 +29 +29 жарко 1016.7 1003.9
05 23.05 СЗ 5 н/о н/о +29.3 +8.9 28 +29 +29 жарко 1015.5 1002.7
04 23.05 З 5 н/о н/о +28.9 +9.6 30 +29 +29 жарко 1016.0 1003.2
06 23.05 СЗ 5 н/о н/о +29.1 +9.3 29 +29 +29 жарко 1015.4 1002.6
07 23.05 СЗ 4 н/о н/о +28.0 +9.3 31 +28 +28 жарко 1015.6 1002.8
08 23.05 З 2 н/о н/о +23.7 +9.7 41 +25 +25 комфорт 1016.0 1003.2
09 23.05 В 6 н/о н/о +21.3 +14.9 67 +24 +24 комфорт 1016.7 1003.9
11 23.05 СВ 3 н/о н/о +19.0 +14.7 76 +20 +20 1017.3 1004.5
10 23.05 СВ 4 н/о н/о +20.2 +14.8 71 +23 +23 комфорт 1016.9 1004.1
12 23.05 СВ 4 н/о н/о +18.3 +14.8 80 +19 +19 1017.2 1004.4
13 23.05 СВ 3 н/о н/о +16.9 +14.2 84 +17 +17 1017.1 1004.3
14 23.05 СВ 2 н/о н/о +15.7 +13.4 86 +16 +16 1016.9 1004.1 +30.0
15 23.05 СВ 3 н/о н/о +14.7 +13.1 90 +14 +14 1016.6 1003.8
17 23.05 З 2 н/о н/о +13.1 +12.0 93 +12 +12 1016.5 1003.7
16 23.05 ЮЗ 2 н/о н/о +14.3 +13.0 92 +14 +14 1016.5 1003.7
18 23.05 ЮЗ 4 н/о н/о +15.2 +13.7 91 +14 +14 1017.0 1004.2
19 23.05 ЮЗ 3 н/о н/о +14.6 +13.0 90 +14 +14 1017.4 1004.6
20 23.05 ЮЗ 3 н/о н/о +14.1 +12.1 88 +13 +13 1018.1 1005.3
21 23.05 ЮЗ 3 н/о н/о +13.1 +11.3 89 +12 +12 1019.0 1006.2
23 23.05 Ю 6 н/о н/о +16.7 +12.3 75 +16 +16 1020.8 1007.9
22 23.05 ЮЗ 3 н/о н/о +14.7 +12.9 89 +14 +14 1020.1 1007.2
00 24.05 Ю 6 н/о н/о +19.2 +10.5 57 +20 +20 1021.4 1008.5
01 24.05 Ю 5 н/о н/о +20.3 +8.9 48 +22 +22 комфорт 1021.2 1008.3
02 24.05 ЮЗ 5 н/о н/о +21.4 +6.1 37 +22 +22 комфорт 1020.6 1007.7 +12.8
03 24.05 ЮЗ 4 н/о н/о +21.7 +6.8 38 +22 +22 комфорт 1019.6 1006.7
04 24.05 ЮЗ 5 н/о н/о +22.1 +5.5 34 +23 +23 комфорт 1019.0 1006.2

 

Местоположение метеостанции Bourke Airport Aws (Новый Южный Уэльс, Австралия): широта -30.03 долгота 145.95 высота над уровнем моря 108 м.

В архиве по умолчанию представлена погода в Bourke Airport Aws за последнюю неделю. Архивные данные за месяц целиком и за предыдущие месяцы, начиная с января 2011 года, Вы можете получить, выбрав интересующий диапазон дат из раскрывающегося списка и нажав кнопку "Ввод!".

Внимание! Время в таблицах - всемирное. Для получения местного времени необходимо прибавить поправку, которая в Bourke Airport Aws равна 10 ч.

Смотрите также архив погоды в соседних городах и на ближайших метеорологических станциях:

Погода в Cobar Mo (Новый Южный Уэльс, Австралия) (162 км)
Погода в Cobar Airport Aws (Новый Южный Уэльс, Австралия) (167 км)
Погода в Walgett Airport Aws (Новый Южный Уэльс, Австралия) (209 км)
Погода в Coonamble Airport (Новый Южный Уэльс, Австралия) (256 км)
Погода в Trangie Research Stn (Новый Южный Уэльс, Австралия) (289 км)
Погода в White Cliffs Aws (Новый Южный Уэльс, Австралия) (291 км)
Погода в Wilcannia Aerodrome (Новый Южный Уэльс, Австралия) (296 км)
Погода в Thargomindah Airport (Квинсленд, Австралия) (309 км)
Погода в St George Airport (Квинсленд, Австралия) (339 км)
Погода в Dubbo Airport Aws (Новый Южный Уэльс, Австралия) (347 км)

Пояснения к столбцам:

Ветер - указаны скорость ветра в м/с - средняя за 10 мин, порывы в срок и между сроками (в фигурных скобках) и направление, откуда дует ветер: С - северный, СВ - северо-восточный, В - восточный, ЮВ - юго-восточный, Ю - южный, ЮЗ - юго-западный, З - западный, СЗ - северо-западный.
Видимость - горизонтальная дальность видимости в метрах или километрах. При видимости от 1 до 10 км при отсутствии осадков обычно наблюдается дымка, при ухудшении видимости до 1 км и менее - туман. В сухую погоду видимость может ухудшаться дымом, пылью или мглою.
Явления - указаны атмосферные явления, наблюдавшиеся в срок или в последний час перед сроком; фигурными скобками обозначены явления, наблюдавшиеся между сроками (за 1-3 часа до срока); квадратными скобками обозначены град или гололедные отложения с указанием их диаметра в мм.
Облачность - указаны через наклонную черту общая и нижняя облачность в баллах и высота нижней границы облаков в метрах; квадратными скобками обозначены формы облаков: Ci - перистые, Cs - перисто-слоистые, Cc - перисто-кучевые, Ac - высококучевые, As - высокослоистые, Sc - слоисто-кучевые, Ns - слоисто-дождевые, Cu - кучевые, Cb - кучево-дождевые. Подробнее классификацию облаков см. в Атласе облаков (PDF).
T - Температура воздуха - температура, измеренная на высоте 2 м над землей.
Td - Температура точки росы - температура, при понижении до которой содержащийся в воздухе водяной пар достигнет насыщения.
f - Относительная влажность воздуха - влажноcть воздуха, измеренная на высоте 2 м над землей.
Te - Эффективная температура - температура, которую ощущает одетый по сезону человек в тени. Характеристика душности погоды. При расчете учитывается влияние влажности воздуха и скорости ветра на теплоощущения человека.
Tes - Эффективная температура на солнце - температура, которую ощущает человек, с поправкой на солнечный нагрев. Характеристика знойности погоды. Зависит от высоты солнца над горизонтом, облачности и скорости ветра. Ночью, в пасмурную погоду, а также при ветре 12 м/с и более поправка равна нулю.
P - Атмосферное давление - приведенное к уровню моря атмосферное давление.
Po - Атмосферное давление - измеренное на уровне метеостанции атмосферное давление.
Tmin - Минимальная температура - минимум температуры воздуха на высоте 2 м над землей.
Tmax - Максимальная температура - максимум температуры воздуха на высоте 2 м над землей.
R - Количество осадков - Количество выпавших осадков за период времени, мм. При наведении курсора мыши на число - период времени, за который выпало указанное количество осадков.
R24 - Количество осадков - Количество выпавших осадков за 24 часа, мм.
S - Снежный покров - Высота снежного покрова, см. При наведении курсора мыши на число - состояние снежного покрова и степень покрытия местности в баллах.